Shreveport, LA

7:29 PM CST on December 05, 2016 (GMT -0600)
Shreveport Downtown

Weather History for KDTN - October, 2013

Change the Weather History Date:

Thursday, October 24, 2013

  Actual Average (KSHV) Record (KSHV)
Temperature  
Mean Temperature 66 °F 64 °F  
Max Temperature 78 °F 76 °F 89 °F (1893)
Min Temperature 55 °F 52 °F 35 °F (1917)
Degree Days  
Heating Degree Days 0 4  
Month to date heating degree days 49  
Since 1 July heating degree days 55  
Cooling Degree Days 1 3  
Month to date cooling degree days 110  
Year to date cooling degree days 2435  
Growing Degree Days 16 (Base 50)    
Moisture  
Dew Point 51 °F    
Average Humidity 62    
Maximum Humidity 77    
Minimum Humidity 45    
Precipitation  
Precipitation 0.00 in 0.17 in 3.09 in (1905)
Month to date precipitation 3.79  
Year to date precipitation 40.94  
Snow  
Snow 0.00 in - - ()
Month to date snowfall  
Since 1 July snowfall  
Since 1 September snowfall  
Snow Depth -    
Sea Level Pressure  
Sea Level Pressure 30.17 in    
Wind  
Wind Speed 5 mph (North)    
Max Wind Speed 9 mph    
Max Gust Speed -    
Visibility 10 miles    
Events      
T = Trace of Precipitation, MM = Missing Value Source: NWS Daily Summary

Daily Weather History Graph

Daily Weather History Graph

Search for Another Location

Airport or City:

Trip Planner

Search our weather history database for the weather conditions in past years. The results will help you decide how hot, cold, wet, or windy it might be!

Date:

Astronomy

Oct. 24, 2013 Rise Set
Actual Time 7:25 AM CDT 6:31 PM CDT
Civil Twilight 7:00 AM CDT 6:56 PM CDT
Nautical Twilight 6:32 AM CDT 7:25 PM CDT
Astronomical Twilight 6:03 AM CDT 7:54 PM CDT
Moon 11:03 PM CDT (10/24) 12:20 PM CDT (10/24)
Length of Visible Light 11h 55m
Length of Day
11h 05m
Waning Gibbous, 71% of the Moon is Illuminated
Oct 24
Waning Gibbous
Oct 26
Last Quarter
Nov 3
New
Nov 9
First Quarter
Nov 17
Full

Hourly Weather History & Observations

Time (CDT) Temp. Dew Point Humidity Pressure Visibility Wind Dir Wind Speed Gust Speed Precip Events Conditions
12:53 AM 59.0 °F 48.9 °F 69% 30.09 in 10.0 mi SSE 6.9 mph - N/A   Clear
1:53 AM 59.0 °F 48.9 °F 69% 30.09 in 10.0 mi Calm Calm - N/A   Clear
2:53 AM 59.0 °F 50.0 °F 72% 30.09 in 10.0 mi SSW 8.1 mph - N/A   Clear
3:53 AM 59.0 °F 51.1 °F 75% 30.08 in 10.0 mi SW 5.8 mph - N/A   Clear
4:53 AM 60.1 °F 48.9 °F 67% 30.09 in 10.0 mi SW 8.1 mph - N/A   Clear
5:53 AM 57.9 °F 48.9 °F 72% 30.11 in 10.0 mi SSW 9.2 mph - N/A   Clear
6:53 AM 55.9 °F 48.0 °F 75% 30.13 in 10.0 mi South 3.5 mph - N/A   Clear
7:53 AM 55.9 °F 48.9 °F 77% 30.14 in 10.0 mi SSW 4.6 mph - N/A   Clear
8:53 AM 61.0 °F 51.1 °F 70% 30.17 in 10.0 mi Calm Calm - N/A   Clear
9:53 AM 64.9 °F 51.1 °F 61% 30.18 in 10.0 mi West 6.9 mph - N/A   Clear
10:53 AM 69.1 °F 52.0 °F 54% 30.19 in 10.0 mi NW 5.8 mph - N/A   Clear
11:53 AM 72.0 °F 52.0 °F 49% 30.19 in 10.0 mi NW 8.1 mph - N/A   Clear
12:53 PM 73.9 °F 52.0 °F 46% 30.19 in 10.0 mi NNW 4.6 mph - N/A   Clear
1:53 PM 75.9 °F 53.1 °F 45% 30.16 in 10.0 mi NNE 4.6 mph - N/A   Clear
2:53 PM 77.0 °F 54.0 °F 45% 30.16 in 10.0 mi North 4.6 mph - N/A   Clear
3:53 PM 77.0 °F 54.0 °F 45% 30.17 in 10.0 mi ENE 3.5 mph - N/A   Clear
4:53 PM 77.0 °F 54.0 °F 45% 30.17 in 10.0 mi North 4.6 mph - N/A   Clear
5:53 PM 73.0 °F 54.0 °F 51% 30.18 in 10.0 mi NE 5.8 mph - N/A   Clear
6:53 PM 69.1 °F 53.1 °F 57% 30.20 in 10.0 mi NE 4.6 mph - N/A   Clear
7:53 PM 66.0 °F 52.0 °F 60% 30.22 in 10.0 mi NE 3.5 mph - N/A   Clear
8:53 PM 64.0 °F 52.0 °F 65% 30.24 in 10.0 mi NE 5.8 mph - N/A   Clear
9:53 PM 62.1 °F 51.1 °F 67% 30.25 in 10.0 mi NE 5.8 mph - N/A   Clear
10:53 PM 60.1 °F 50.0 °F 69% 30.28 in 10.0 mi ENE 6.9 mph - N/A   Clear
11:53 PM 57.9 °F 48.9 °F 72% 30.29 in 10.0 mi Variable 4.6 mph - N/A   Clear